Location: Newark
(44.9861°N, 0.2536°E)
Time: 22:28:59
(UTC+00:00)

HuskySat-1 - Pass Details

Date: 17 July 2020
Orbit: 457 x 471 km, 51.6° (Epoch: 10 August)

Event Time Altitude Azimuth Distance (km) Brightness Sun altitude
Rises 02:52:23 0° 300° (WNW) 2,491 ? -13.7°
Reaches altitude 10° 02:54:34 10° 304° (NW) 1,611 ? -13.5°
Maximum altitude 02:58:09 58° 24° (NNE) 543 ? -13.1°
Drops below altitude 10° 03:01:43 10° 105° (ESE) 1,598 ? -12.6°
Sets 03:03:52 0° 109° (ESE) 2,468 ? -12.4°
